Terug naar catalogus

STARLINK-36527

ActiefCommunicatieVLEO
NORAD 67631·PAYLOAD·🇺🇸 United States

Gelanceerd Jan 30, 2026 vanaf Cape Canaveral Space Force Station

Loading…

Volgende Passages (komende 24 uur)

TLE

VersSource: CelesTrak SupGP

Epoch: Sep 14, 2026, 21:35 UTC

1 67631C 26020Q   26257.89979167 -.00033826  00000+0 -12252-2 0  2575
2 67631  43.0010 151.6508 0001432 256.2060 186.9441 15.27593094    19

Volg STARLINK-36527 in realtime met AllMySat

Download on the App Store